Flag for Poland Weather past 2 weeks in Warsaw, Poland

Now
57 °F

Scattered clouds.


Feels Like: 54 °F
Forecast: 44 / 65 °F
Wind: 16 mph from Northwest

Location: Warsaw Okecie Airport

Current Time: May 27, 2015 at 3:12:51 PM

Latest Report: May 27, 2015 at 2:30 PM


Visibility: N/A

Pressure: 29.92 "Hg

Humidity: 55%

Dew point: 41 °F

Location of WarsawLocation

Historic Weather in Warsaw — Graph

°F

Warsaw temperature yesterday

Maximum temperature yesterday: 64 °F (at 12:30 PM)
Minimum temperature yesterday: 50 °F (at 11:30 PM)
Average temperature yesterday: 58 °F

Past Weeks' High & Low Weather Summary

 TemperatureHumidityPressure
High79 °F (May 19, 2:30 PM)100% (May 20, 12:00 AM)30.27 "Hg (May 20, 12:00 AM)
Low36 °F (May 16, 3:30 AM)23% (May 16, 10:30 AM)29.71 "Hg (May 14, 2:30 PM)
Average57 °F70%29.96 "Hg
* Reported May 12 2:00 PM — May 27 2:00 PM, Warsaw, Weather by CustomWeather, © 2015

Note: Actual official high and low records may vary slightly from our data, if they occured in-between our weather recording intervals... More about our weather records

Advertising

Warsaw weather history for previous 24 hours

 ConditionsComfort  
Time TempWeatherWind HumidityBarometerVisibility
2:00 PM
Wed, May 27
55 °FPassing clouds.14 mph63%29.92 "HgN/A
1:30 PM55 °FPassing clouds.12 mph63%29.92 "HgN/A
1:00 PM55 °FScattered clouds.13 mph63%29.92 "HgN/A
12:30 PM54 °FScattered clouds.13 mph72%29.92 "HgN/A
12:00 PM54 °FScattered clouds.15 mph67%29.92 "HgN/A
11:30 AM54 °FPassing clouds.13 mph72%29.92 "HgN/A
11:00 AM52 °FPassing clouds.14 mph72%29.92 "HgN/A
10:30 AM52 °FSunny.15 mph72%29.92 "Hg10 mi
10:00 AM52 °FSunny.12 mph77%29.92 "Hg10 mi
9:30 AM50 °FSunny.12 mph76%29.92 "Hg10 mi
9:00 AM50 °FPassing clouds.13 mph82%29.92 "HgN/A
8:30 AM48 °FPassing clouds.12 mph82%29.92 "HgN/A
8:00 AM48 °FPassing clouds.12 mph82%29.92 "HgN/A
7:30 AM48 °FPassing clouds.10 mph82%29.92 "HgN/A
7:00 AM48 °FPassing clouds.12 mph82%29.89 "HgN/A
6:30 AM48 °FSunny.12 mph82%29.89 "Hg10 mi
6:00 AM46 °FLight rain. Clear.13 mph87%29.89 "HgN/A
5:30 AM48 °FLight rain. Clear.14 mph87%29.89 "HgN/A
5:00 AM48 °FClear.13 mph87%29.89 "Hg10 mi
4:30 AM48 °FClear.13 mph87%29.89 "Hg10 mi
4:00 AM48 °FPassing clouds.10 mph87%29.89 "HgN/A
3:30 AM48 °FSprinkles. Passing clouds.9 mph82%29.89 "HgN/A
3:00 AM48 °FSprinkles. Passing clouds.9 mph87%29.89 "HgN/A
2:30 AM48 °FSprinkles. Passing clouds.9 mph87%29.89 "HgN/A
2:00 AM48 °FSprinkles. Passing clouds.13 mph82%29.86 "HgN/A
1:30 AM50 °FClear.14 mph76%29.86 "Hg10 mi
1:00 AM50 °FClear.14 mph71%29.86 "Hg10 mi
12:30 AM50 °FClear.13 mph71%29.86 "Hg10 mi
12:00 AM50 °FClear.15 mph76%29.86 "Hg10 mi
11:30 PM
Tue, May 26
50 °FPassing clouds.15 mph82%29.86 "HgN/A
11:00 PM52 °FClear.18 mph77%29.86 "Hg10 mi
10:30 PM52 °FPassing clouds.17 mph82%29.86 "HgN/A
10:00 PM52 °FSprinkles. Passing clouds.20 mph82%29.86 "HgN/A
9:30 PM52 °FSprinkles. Passing clouds.20 mph88%29.86 "HgN/A
9:00 PM52 °FSprinkles. Scattered clouds.18 mph94%29.86 "HgN/A
8:30 PM52 °FSprinkles. Partly sunny.16 mph100%29.83 "HgN/A
8:00 PM54 °FRain showers. Broken clouds.20 mph94%29.83 "Hg3 mi
7:30 PM55 °FRain showers. Broken clouds.21 mph94%29.83 "Hg2 mi
7:00 PM57 °FSprinkles. Broken clouds.18 mph88%29.83 "Hg2 mi
6:30 PM59 °FBroken clouds.18 mph88%29.77 "HgN/A
6:00 PM61 °FPartly sunny.15 mph83%29.77 "HgN/A
5:30 PM63 °FPartly sunny.12 mph77%29.77 "HgN/A
5:00 PM63 °FPartly sunny.14 mph77%29.77 "HgN/A
4:30 PM63 °FPartly sunny.13 mph77%29.77 "HgN/A
4:00 PM63 °FSprinkles. Scattered clouds.15 mph77%29.77 "HgN/A
3:30 PM63 °FPartly sunny.12 mph77%29.77 "HgN/A
3:00 PM63 °FBroken clouds.10 mph83%29.80 "HgN/A
Weather by CustomWeather, © 2015

See weather overviewHow to use our weather pages